[[{"header":{"parameterUnit":"m.s-1","parameterCategory":1,"la1":30.2991,"la2":30.254,"lo1":-89.0895,"lo2":-89.0444,"dy":0.0017,"dx":0.0017,"nx":28,"ny":28,"refTime":"2024-06-25T09:00:00:Z","depth":0,"parameterNumber":2,"parameterNumberName":"U-component_of_WINDS"},"data":[0,0,0,0,0,0,0,0,0,0,0,0,0,0,0,0,0,0,0,0,0,0,0,0,0,0,0,0,0,0,0,0,0,0,0,0,0,0,0,0,0,0,0,0,0,0,0,0,0,0,0,0,0,0,0,0,0,0,4.8401,4.8402,0,4.8477,4.8478,4.8479,4.8368,4.8364,4.836,4.8356,4.8436,4.8442,4.8447,0,0,0,0,0,0,0,0,0,0,0,0,0,4.8162,4.8167,4.8401,4.8402,4.8403,4.8477,4.8478,4.8479,4.8368,4.8363,4.8359,4.8354,4.8434,4.8441,4.8448,0,0,0,0,0,0,0,0,0,0,0,0,0,4.8255,4.8168,4.8401,4.8356,4.8353,4.8477,4.8478,4.848,4.8369,4.8363,4.8357,4.8352,4.8432,4.844,4.8449,4.862,0,0,4.8475,4.8479,0,0,0,0,0,0,0,0,4.825,4.8264,4.8362,4.836,4.8356,4.8407,4.8423,4.8527,4.8371,4.8363,4.8356,4.8349,4.8431,4.844,4.8467,4.8624,4.8627,4.8476,4.8481,4.8485,4.8488,0,0,0,0,0,0,0,4.8243,4.826,4.8431,4.8364,4.836,4.8334,4.834,4.8442,4.8429,4.8363,4.8356,4.8366,4.8429,4.8459,4.8468,4.8629,4.8476,4.8484,4.8489,4.8492,4.8932,4.8938,0,0,0,0,0,0,4.8242,4.8255,4.8429,4.8433,4.8287,4.8343,4.835,4.8397,4.8428,4.8427,4.8371,4.8361,4.8447,4.8458,4.847,4.8673,4.8485,4.8493,4.8498,4.8925,4.8933,4.894,0,0,0,0,0,0,4.8237,4.8258,4.8426,4.8342,4.8361,4.8353,4.8406,4.8401,4.8431,4.8434,4.8431,4.8404,4.8443,4.8458,4.8584,4.8675,4.8497,4.8505,4.8918,4.8928,4.8937,4.9081,0,0,0,0,0,0,4.8231,4.8257,4.8322,4.8344,4.8366,4.8538,4.8412,4.8407,4.8446,4.8433,4.8464,4.8463,4.8439,4.8572,4.8593,4.8683,4.8512,4.8909,4.8922,4.8933,4.9068,4.9094,4.9117,0,0,0,0,0,4.8223,4.8359,4.8325,4.8347,4.8446,4.8543,4.8555,4.8524,4.8454,4.8519,4.8521,4.8462,4.8662,4.8585,4.8608,4.8703,4.8904,4.8918,4.8933,4.9057,4.9089,4.9116,0,0,0,0,0,0,4.8347,4.8361,4.8324,4.8472,4.8507,4.8524,4.8604,4.8559,4.8615,4.8601,4.8561,4.8569,4.8704,4.8716,4.8631,4.8871,4.8771,4.8791,4.8858,4.8888,4.8912,4.8906,4.8519,0,0,0,0,0,4.8392,4.8469,4.8477,4.8607,4.8626,4.8613,4.8654,4.8627,4.8662,4.8676,4.8687,4.8724,4.8795,4.8842,4.8908,4.907,4.9075,4.9146,4.9171,4.9191,4.9208,4.9295,4.9327,4.8988,4.8988,4.8987,0,0,4.8485,4.8502,4.8553,4.8632,4.8656,4.8737,4.8626,4.8716,4.8776,4.869,4.8809,4.882,4.8858,4.9003,4.9067,4.9017,4.9303,4.9209,4.9225,4.9232,4.9314,4.9346,4.9374,4.8998,4.8996,4.8994,0,0,4.8695,4.8716,4.8827,4.8854,4.8892,4.8882,4.8909,4.8934,4.8937,4.9056,4.8993,4.9065,4.9188,4.9218,4.925,4.9475,4.9423,4.9498,4.9625,4.971,4.9737,4.9761,4.9841,4.987,4.9515,4.9515,4.9516,0,4.8806,4.8925,4.889,4.8985,4.9022,4.8948,4.9061,4.9089,4.9147,4.9175,4.9118,4.9271,4.9292,4.9443,4.9499,4.9527,4.9557,4.9493,4.9736,4.9759,4.9781,4.9857,4.9887,4.9524,4.9523,4.9522,4.9521,0,4.9059,4.9143,4.9228,4.9286,4.9333,4.9437,4.9418,4.947,4.944,4.9437,4.9561,4.9583,4.9652,4.9687,4.9658,4.9835,4.9803,4.9742,4.964,4.9822,4.9893,4.9922,4.9536,4.9533,4.9531,4.9529,0,0,4.9348,4.9387,4.9418,4.9444,4.9482,4.9546,4.9648,4.9715,4.9761,4.9804,4.9888,4.9995,4.9939,4.9975,4.995,5.0026,5.0203,4.9956,4.9956,5.0001,5.04,5.0445,5.0479,5.017,5.0175,5.018,5.0396,0,4.9558,4.9731,4.9704,4.9872,4.995,4.9882,4.997,5.0004,5.0005,5.0071,5.0072,5.0149,5.0069,5.0091,5.0163,5.0166,5.0283,5.0151,5.0248,5.0252,5.0239,5.0516,5.0563,5.0766,5.0424,5.0429,5.0432,0,4.9825,4.9879,5.0055,5.0082,5.0113,5.0193,5.0253,5.0318,5.0355,5.035,5.0392,5.0354,5.0456,5.0354,5.0494,5.0405,5.0444,5.0452,5.0459,5.0466,5.0352,5.053,5.083,5.0861,5.0475,5.0472,5.0469,0,5.0018,5.0134,5.0254,5.0279,5.0314,5.0371,5.0389,5.042,5.0463,5.0516,5.0544,5.0609,5.0645,5.0696,5.0677,5.0605,5.0822,5.0718,5.0821,5.0822,5.0869,5.0866,5.1179,5.0896,5.0895,5.0895,5.0894,0,5.0255,5.0365,5.0342,5.0416,5.0538,5.0506,5.0628,5.0638,5.0667,5.0742,5.0689,5.0761,5.0731,5.0802,5.0788,5.0907,5.0924,5.0923,5.0918,5.0927,5.0927,5.0951,5.0936,5.0903,5.0901,5.0899,5.0898,0,5.0489,5.0478,5.0605,5.0629,5.0637,5.0726,5.0746,5.0816,5.0814,5.091,5.0931,5.0927,5.1008,5.0994,5.1084,5.1074,5.1223,5.1201,5.121,5.1204,5.1308,5.1298,5.1646,5.1691,5.138,5.1383,5.1385,0,5.064,5.0724,5.0757,5.0803,5.0825,5.0901,5.0944,5.0917,5.0965,5.1016,5.108,5.1156,5.1215,5.1347,5.1353,5.1421,5.14,5.1518,5.141,5.1417,5.1401,5.1396,5.1404,5.1538,5.1542,5.1545,5.1547,0,5.091,5.0901,5.0965,5.103,5.1084,5.1133,5.1176,5.1218,5.1195,5.1252,5.1334,5.138,5.1472,5.1548,5.1612,5.1631,5.1586,5.1581,5.1609,5.1618,5.162,5.162,5.1267,5.1573,5.157,5.1568,5.1567,5.1566,5.1107,5.1178,5.1213,5.1287,5.1318,5.1361,5.1428,5.1434,5.1502,5.1574,5.1555,5.1648,5.1685,5.1767,5.1793,5.1866,5.1822,5.1862,5.1872,5.1882,5.1894,5.161,5.1877,5.1877,5.1876,5.1875,5.1875,0,5.1373,5.1392,5.1461,5.1525,5.1584,5.1537,5.1584,5.1637,5.1719,5.1757,5.1817,5.1912,5.1986,5.1999,5.207,5.2126,5.2107,5.2145,5.214,5.2145,5.1929,5.1898,5.2159,5.2159,5.2159,5.2159,5.2159,5.2159,5.1518,5.1636,5.1632,5.1766,5.1784,5.1875,5.1906,5.1945,5.1976,5.2084,5.2146,5.2153,5.2182,5.2255,5.2321,5.2323,5.2351,5.2398,5.2392,5.2189,5.2161,5.2133,5.2104,5.2404,5.2405,5.2602,5.2604,5.2605]},{"header":{"parameterUnit":"m.s-1","parameterCategory":1,"la1":30.2991,"la2":30.254,"lo1":-89.0895,"lo2":-89.0444,"dy":0.0017,"dx":0.0017,"nx":28,"ny":28,"refTime":"2024-06-25T09:00:00:Z","depth":0,"parameterNumber":3,"parameterNumberName":"V-component_of_WINDS"},"data":[0,0,0,0,0,0,0,0,0,0,0,0,0,0,0,0,0,0,0,0,0,0,0,0,0,0,0,0,0,0,0,0,0,0,0,0,0,0,0,0,0,0,0,0,0,0,0,0,0,0,0,0,0,0,0,0,0,0,2.4387,2.439,0,2.4623,2.4625,2.4628,2.4708,2.4707,2.4706,2.4705,2.4947,2.4954,2.4961,0,0,0,0,0,0,0,0,0,0,0,0,0,2.4007,2.4014,2.4387,2.439,2.4393,2.4622,2.4625,2.4629,2.4708,2.4707,2.4705,2.4704,2.4945,2.4953,2.4962,0,0,0,0,0,0,0,0,0,0,0,0,0,2.42,2.4016,2.4387,2.446,2.4469,2.4622,2.4626,2.463,2.4708,2.4707,2.4705,2.4704,2.4942,2.4952,2.4963,2.506,0,0,2.4997,2.5002,0,0,0,0,0,0,0,0,2.4189,2.4214,2.4446,2.4455,2.4466,2.4634,2.458,2.4774,2.4708,2.4617,2.4705,2.4703,2.4844,2.4863,2.4911,2.5072,2.5082,2.4998,2.5005,2.5009,2.5013,0,0,0,0,0,0,0,2.4176,2.4204,2.448,2.445,2.4461,2.4482,2.4507,2.4617,2.4736,2.4625,2.4631,2.4658,2.4849,2.49,2.4917,2.5086,2.4998,2.5008,2.5014,2.5019,2.5338,2.534,0,0,0,0,0,0,2.415,2.4193,2.4473,2.4487,2.4321,2.449,2.4519,2.4582,2.4735,2.4757,2.4659,2.4661,2.4882,2.4904,2.4926,2.505,2.5009,2.502,2.5026,2.5336,2.5339,2.5341,0,0,0,0,0,0,2.4141,2.4174,2.4463,2.4342,2.438,2.4498,2.4568,2.4587,2.4638,2.4761,2.4782,2.4689,2.4881,2.491,2.5026,2.5059,2.5025,2.5035,2.5334,2.5337,2.534,2.5298,0,0,0,0,0,0,2.413,2.417,2.4208,2.4342,2.4386,2.456,2.457,2.4593,2.4656,2.4661,2.4795,2.4815,2.4882,2.5009,2.5037,2.5074,2.5043,2.5332,2.5336,2.5339,2.5297,2.5299,2.5301,0,0,0,0,0,2.4116,2.4188,2.421,2.4243,2.4436,2.4561,2.4587,2.4662,2.4659,2.4698,2.4777,2.4811,2.5051,2.5021,2.5053,2.5093,2.533,2.5334,2.5339,2.5296,2.5299,2.5301,0,0,0,0,0,0,2.4056,2.4207,2.4233,2.435,2.4442,2.4575,2.4627,2.4663,2.4758,2.4759,2.4849,2.4878,2.4987,2.5052,2.5016,2.5195,2.5192,2.5203,2.5149,2.5152,2.5154,2.5137,2.5052,0,0,0,0,0,2.4055,2.4144,2.4271,2.4362,2.4407,2.4508,2.4566,2.4616,2.4715,2.4755,2.4843,2.4938,2.5035,2.5097,2.5193,2.5306,2.5337,2.535,2.5351,2.5352,2.5361,2.5426,2.5433,2.5355,2.5355,2.5355,0,0,2.4057,2.415,2.4201,2.4352,2.443,2.452,2.4541,2.4635,2.4703,2.477,2.4885,2.4952,2.5065,2.5179,2.5234,2.5236,2.5389,2.5358,2.5358,2.5366,2.5431,2.5438,2.5445,2.5358,2.5357,2.5357,0,0,2.4106,2.4185,2.4269,2.4346,2.4463,2.453,2.4549,2.4677,2.4724,2.4841,2.4892,2.4974,2.5139,2.5217,2.5278,2.5355,2.539,2.5384,2.5394,2.5456,2.5462,2.5468,2.5496,2.5505,2.5392,2.5392,2.5392,0,2.4093,2.423,2.4308,2.44,2.4465,2.4528,2.4614,2.4685,2.4827,2.4871,2.4871,2.5079,2.516,2.5294,2.5312,2.5359,2.5385,2.537,2.5455,2.5462,2.5468,2.5496,2.5506,2.539,2.539,2.5391,2.5391,0,2.4209,2.4303,2.4357,2.4492,2.4563,2.4652,2.4743,2.4806,2.4849,2.4916,2.5034,2.5132,2.5249,2.5284,2.5328,2.5425,2.5422,2.5437,2.5437,2.5473,2.55,2.5512,2.5388,2.5389,2.5389,2.5389,0,0,2.4227,2.4403,2.4422,2.4484,2.4616,2.4691,2.4782,2.4896,2.4948,2.5044,2.5123,2.526,2.5275,2.5344,2.5397,2.5451,2.5506,2.546,2.5464,2.5466,2.5619,2.5607,2.5618,2.5529,2.5532,2.5534,2.5609,0,2.4294,2.4459,2.4531,2.4664,2.4752,2.4813,2.4892,2.4982,2.5047,2.5131,2.5203,2.5299,2.5311,2.5353,2.5409,2.5487,2.5538,2.5483,2.5604,2.5608,2.5575,2.5632,2.562,2.5687,2.562,2.5622,2.5624,0,2.4394,2.4489,2.463,2.4751,2.4791,2.4861,2.4971,2.5051,2.5154,2.5197,2.5274,2.5324,2.5422,2.5414,2.555,2.5511,2.5565,2.561,2.5615,2.563,2.5618,2.5649,2.571,2.572,2.5641,2.564,2.5639,0,2.4394,2.4557,2.4663,2.4713,2.4858,2.4906,2.4968,2.507,2.5133,2.5229,2.5272,2.5377,2.5436,2.5517,2.5594,2.5581,2.5723,2.5721,2.5762,2.576,2.579,2.5787,2.5861,2.5823,2.5823,2.5823,2.5823,0,2.4461,2.4545,2.4664,2.4729,2.4825,2.4907,2.5,2.5067,2.5156,2.5236,2.5294,2.5367,2.5465,2.555,2.5611,2.5715,2.574,2.5778,2.5794,2.5774,2.5769,2.5811,2.5808,2.5826,2.5825,2.5824,2.5824,0,2.4478,2.4561,2.468,2.4806,2.484,2.4905,2.5014,2.5079,2.5145,2.5245,2.5273,2.5378,2.5481,2.5566,2.5702,2.5743,2.5851,2.5868,2.5816,2.5824,2.5861,2.5856,2.5965,2.5983,2.5931,2.5932,2.5932,0,2.4516,2.4582,2.4715,2.4771,2.4833,2.4924,2.4989,2.5072,2.5137,2.5259,2.5309,2.5417,2.5507,2.567,2.5758,2.5862,2.5883,2.5914,2.5899,2.5876,2.5884,2.5879,2.5886,2.5915,2.5915,2.5915,2.5915,0,2.4574,2.4612,2.4703,2.4808,2.4883,2.4971,2.5059,2.5102,2.5201,2.5271,2.5378,2.5448,2.5586,2.5692,2.5805,2.5869,2.5909,2.5919,2.5934,2.5915,2.5882,2.5901,2.582,2.5917,2.5916,2.5916,2.5916,2.5916,2.4604,2.4665,2.4768,2.4867,2.4942,2.5023,2.5091,2.5165,2.5255,2.5373,2.5417,2.5525,2.5626,2.5782,2.5847,2.5934,2.5938,2.5959,2.5965,2.5969,2.5967,2.5867,2.5954,2.5954,2.5955,2.5955,2.5955,0,2.4666,2.4735,2.4825,2.4946,2.5024,2.5054,2.5153,2.5216,2.5311,2.5401,2.5489,2.561,2.5713,2.5809,2.5916,2.5967,2.5988,2.5993,2.599,2.6004,2.5957,2.5933,2.5974,2.5974,2.5974,2.5974,2.5974,2.5974,2.4708,2.4813,2.4862,2.5005,2.5074,2.518,2.5234,2.5309,2.5382,2.5515,2.56,2.5661,2.5754,2.5869,2.5964,2.599,2.6027,2.6027,2.6057,2.6011,2.6008,2.6005,2.5983,2.6034,2.6034,2.6098,2.6098,2.6098]}]]